Time,TemperatureF,DewpointF,PressureIn,WindDirection,WindDirectionDegrees,WindSpeedMPH,WindSpeedGustMPH,Humidity,HourlyPrecipIn,Conditions,Clouds,dailyrainin,SoftwareType,DateUTC
2013-09-17 00:01:00,50.7,47.6,30.28,NNE,22,0.0,0.0,89,0.00,CLR,,0.00,WeatherDisplay:10.37,2013-09-17 04:01:00,
2013-09-17 00:02:00,50.7,47.6,30.28,NNE,22,0.0,0.0,89,0.00,CLR,,0.00,WeatherDisplay:10.37,2013-09-17 04:02:00,
2013-09-17 00:07:00,50.7,47.6,30.28,NNE,22,0.0,0.0,89,0.00,CLR,,0.00,WeatherDisplay:10.37,2013-09-17 04:07:00,
2013-09-17 00:12:00,50.5,47.4,30.28,NNE,22,0.0,0.0,89,0.00,CLR,,0.00,WeatherDisplay:10.37,2013-09-17 04:12:00,
2013-09-17 00:17:00,50.5,47.4,30.28,NNE,22,0.0,0.0,89,0.00,CLR,,0.00,WeatherDisplay:10.37,2013-09-17 04:17:00,
2013-09-17 00:22:00,50.4,47.2,30.28,NNE,22,0.0,0.0,89,0.00,CLR,,0.00,WeatherDisplay:10.37,2013-09-17 04:22:00,
2013-09-17 00:27:00,50.2,47.4,30.28,NNE,22,0.0,0.0,90,0.00,CLR,,0.00,WeatherDisplay:10.37,2013-09-17 04:27:00,
2013-09-17 00:32:00,50.2,47.4,30.28,NNE,22,0.0,0.0,90,0.00,CLR,,0.00,WeatherDisplay:10.37,2013-09-17 04:32:00,
2013-09-17 00:37:00,50.2,47.4,30.28,NNE,22,0.0,0.0,90,0.00,CLR,,0.00,WeatherDisplay:10.37,2013-09-17 04:37:00,
2013-09-17 00:42:00,49.8,47.0,30.28,NNE,22,0.0,0.0,90,0.00,CLR,,0.00,WeatherDisplay:10.37,2013-09-17 04:42:00,
2013-09-17 00:47:00,49.8,47.0,30.28,NNE,22,0.0,0.0,90,0.00,CLR,,0.00,WeatherDisplay:10.37,2013-09-17 04:47:00,
2013-09-17 00:52:00,49.8,47.0,30.28,NNE,22,0.0,0.0,90,0.00,CLR,,0.00,WeatherDisplay:10.37,2013-09-17 04:52:00,
2013-09-17 00:57:00,49.8,47.0,30.28,NNE,22,0.0,0.0,90,0.00,CLR,,0.00,WeatherDisplay:10.37,2013-09-17 04:57:00,
2013-09-17 01:02:00,49.8,47.0,30.28,NNE,22,0.0,0.0,90,0.00,CLR,,0.00,WeatherDisplay:10.37,2013-09-17 05:02:00,
2013-09-17 01:07:00,49.6,46.8,30.28,NNE,22,0.0,0.0,90,0.00,CLR,,0.00,WeatherDisplay:10.37,2013-09-17 05:07:00,
2013-09-17 01:12:00,49.6,46.8,30.28,NNE,22,0.0,0.0,90,0.00,CLR,,0.00,WeatherDisplay:10.37,2013-09-17 05:12:00,
2013-09-17 01:17:00,49.6,46.8,30.28,NNE,22,0.0,0.0,90,0.00,CLR,,0.00,WeatherDisplay:10.37,2013-09-17 05:17:00,
2013-09-17 01:22:00,49.3,46.5,30.28,NNE,22,0.0,0.0,90,0.00,CLR,,0.00,WeatherDisplay:10.37,2013-09-17 05:22:00,
2013-09-17 01:27:00,49.3,46.5,30.28,NNE,22,0.0,0.0,90,0.00,CLR,,0.00,WeatherDisplay:10.37,2013-09-17 05:27:00,
2013-09-17 01:32:00,49.1,46.3,30.28,NNE,22,0.0,0.0,90,0.00,CLR,,0.00,WeatherDisplay:10.37,2013-09-17 05:32:00,
2013-09-17 01:37:00,49.1,46.3,30.29,NNE,22,0.0,0.0,90,0.00,CLR,,0.00,WeatherDisplay:10.37,2013-09-17 05:37:00,
2013-09-17 01:42:00,49.1,46.3,30.29,NNE,22,0.0,0.0,90,0.00,CLR,,0.00,WeatherDisplay:10.37,2013-09-17 05:42:00,
2013-09-17 01:47:00,48.9,46.1,30.28,NNE,22,0.0,0.0,90,0.00,CLR,,0.00,WeatherDisplay:10.37,2013-09-17 05:47:00,
2013-09-17 01:52:00,48.9,46.1,30.28,NNE,22,0.0,0.0,90,0.00,CLR,,0.00,WeatherDisplay:10.37,2013-09-17 05:52:00,
2013-09-17 01:57:00,48.9,46.1,30.28,NNE,22,0.0,0.0,90,0.00,CLR,,0.00,WeatherDisplay:10.37,2013-09-17 05:57:00,
2013-09-17 02:02:00,48.9,46.1,30.28,NNE,22,0.0,0.0,90,0.00,CLR,,0.00,WeatherDisplay:10.37,2013-09-17 06:02:00,
2013-09-17 02:07:00,48.7,45.9,30.29,NNE,22,0.0,0.0,90,0.00,CLR,,0.00,WeatherDisplay:10.37,2013-09-17 06:07:00,
2013-09-17 02:12:00,48.7,45.9,30.29,NNE,22,0.0,0.0,90,0.00,CLR,,0.00,WeatherDisplay:10.37,2013-09-17 06:12:00,
2013-09-17 02:17:00,48.7,45.9,30.28,NNE,22,0.0,0.0,90,0.00,CLR,,0.00,WeatherDisplay:10.37,2013-09-17 06:17:00,
2013-09-17 02:22:00,48.6,45.8,30.29,NNE,22,0.0,0.0,90,0.00,CLR,,0.00,WeatherDisplay:10.37,2013-09-17 06:22:00,
2013-09-17 02:27:00,48.6,45.8,30.29,NNE,22,0.0,0.0,90,0.00,CLR,,0.00,WeatherDisplay:10.37,2013-09-17 06:27:00,
2013-09-17 02:32:00,48.4,45.6,30.28,NNE,22,0.0,0.0,90,0.00,CLR,,0.00,WeatherDisplay:10.37,2013-09-17 06:32:00,
2013-09-17 02:37:00,48.4,45.9,30.28,NNE,22,0.0,0.0,91,0.00,CLR,,0.00,WeatherDisplay:10.37,2013-09-17 06:37:00,
2013-09-17 02:42:00,48.4,45.9,30.28,NNE,22,0.0,0.0,91,0.00,CLR,,0.00,WeatherDisplay:10.37,2013-09-17 06:42:00,
2013-09-17 02:47:00,48.6,46.1,30.28,NNE,22,0.0,0.0,91,0.00,CLR,,0.00,WeatherDisplay:10.37,2013-09-17 06:47:00,
2013-09-17 02:52:00,48.4,45.9,30.28,NNE,22,0.0,0.0,91,0.00,CLR,,0.00,WeatherDisplay:10.37,2013-09-17 06:52:00,
2013-09-17 02:57:00,48.4,45.9,30.28,NNE,22,0.0,0.0,91,0.00,CLR,,0.00,WeatherDisplay:10.37,2013-09-17 06:57:00,
2013-09-17 03:02:00,48.4,45.9,30.28,NNE,22,0.0,0.0,91,0.00,CLR,,0.00,WeatherDisplay:10.37,2013-09-17 07:02:00,
2013-09-17 03:07:00,48.4,45.9,30.28,NNE,22,0.0,0.0,91,0.00,CLR,,0.00,WeatherDisplay:10.37,2013-09-17 07:07:00,
2013-09-17 03:12:00,48.2,45.7,30.28,NNE,22,0.0,0.0,91,0.00,CLR,,0.00,WeatherDisplay:10.37,2013-09-17 07:12:00,
2013-09-17 03:17:00,48.2,45.7,30.28,NNE,22,0.0,0.0,91,0.00,CLR,,0.00,WeatherDisplay:10.37,2013-09-17 07:17:00,
2013-09-17 03:22:00,48.0,45.5,30.28,NNE,22,0.0,0.0,91,0.00,CLR,,0.00,WeatherDisplay:10.37,2013-09-17 07:22:00,
2013-09-17 03:27:00,47.8,45.3,30.28,NNE,22,0.0,0.0,91,0.00,CLR,,0.00,WeatherDisplay:10.37,2013-09-17 07:27:00,
2013-09-17 03:32:00,47.8,45.3,30.28,NNE,22,0.0,0.0,91,0.00,CLR,,0.00,WeatherDisplay:10.37,2013-09-17 07:32:00,
2013-09-17 03:37:00,47.5,45.0,30.28,NNE,22,0.0,0.0,91,0.00,CLR,,0.00,WeatherDisplay:10.37,2013-09-17 07:37:00,
2013-09-17 03:42:00,47.3,44.8,30.28,NNE,22,0.0,0.0,91,0.00,CLR,,0.00,WeatherDisplay:10.37,2013-09-17 07:42:00,
2013-09-17 03:47:00,47.3,44.8,30.28,NNE,22,0.0,0.0,91,0.00,CLR,,0.00,WeatherDisplay:10.37,2013-09-17 07:47:00,
2013-09-17 03:52:00,47.1,44.6,30.28,NNE,22,0.0,0.0,91,0.00,CLR,,0.00,WeatherDisplay:10.37,2013-09-17 07:52:00,
2013-09-17 03:57:00,46.9,44.4,30.28,NNE,22,0.0,0.0,91,0.00,CLR,,0.00,WeatherDisplay:10.37,2013-09-17 07:57:00,
2013-09-17 04:02:00,46.9,44.4,30.28,NNE,22,0.0,0.0,91,0.00,CLR,,0.00,WeatherDisplay:10.37,2013-09-17 08:02:00,
2013-09-17 04:07:00,46.8,44.3,30.29,NNE,22,0.0,0.0,91,0.00,CLR,,0.00,WeatherDisplay:10.37,2013-09-17 08:07:00,
2013-09-17 04:12:00,46.6,44.1,30.29,NNE,22,0.0,0.0,91,0.00,CLR,,0.00,WeatherDisplay:10.37,2013-09-17 08:12:00,
2013-09-17 04:17:00,46.6,44.1,30.29,NNE,22,0.0,0.0,91,0.00,CLR,,0.00,WeatherDisplay:10.37,2013-09-17 08:17:00,
2013-09-17 04:22:00,46.6,44.1,30.29,NNE,22,0.0,0.0,91,0.00,CLR,,0.00,WeatherDisplay:10.37,2013-09-17 08:22:00,
2013-09-17 04:27:00,46.4,43.9,30.29,NNE,22,0.0,0.0,91,0.00,CLR,,0.00,WeatherDisplay:10.37,2013-09-17 08:27:00,
2013-09-17 04:32:00,46.2,43.7,30.28,NNE,22,0.0,0.0,91,0.00,CLR,,0.00,WeatherDisplay:10.37,2013-09-17 08:32:00,
2013-09-17 04:37:00,46.2,43.7,30.28,NNE,22,0.0,0.0,91,0.00,CLR,,0.00,WeatherDisplay:10.37,2013-09-17 08:37:00,
2013-09-17 04:42:00,46.2,43.7,30.28,NNE,22,0.0,0.0,91,0.00,CLR,,0.00,WeatherDisplay:10.37,2013-09-17 08:42:00,
2013-09-17 04:47:00,46.2,43.7,30.28,NNE,22,0.0,0.0,91,0.00,CLR,,0.00,WeatherDisplay:10.37,2013-09-17 08:47:00,
2013-09-17 04:52:00,46.0,43.6,30.28,NNE,22,0.0,0.0,91,0.00,CLR,,0.00,WeatherDisplay:10.37,2013-09-17 08:52:00,
2013-09-17 04:57:00,46.0,43.6,30.29,NNE,22,0.0,0.0,91,0.00,CLR,,0.00,WeatherDisplay:10.37,2013-09-17 08:57:00,
2013-09-17 05:02:00,45.7,43.2,30.28,NNE,22,0.0,0.0,91,0.00,CLR,,0.00,WeatherDisplay:10.37,2013-09-17 09:02:00,
2013-09-17 05:07:00,45.7,43.2,30.28,NNE,22,0.0,0.0,91,0.00,CLR,,0.00,WeatherDisplay:10.37,2013-09-17 09:07:00,
2013-09-17 05:12:00,45.7,43.2,30.29,NNE,22,0.0,0.0,91,0.00,CLR,,0.00,WeatherDisplay:10.37,2013-09-17 09:12:00,
2013-09-17 05:17:00,45.5,43.0,30.29,NNE,22,0.0,0.0,91,0.00,CLR,,0.00,WeatherDisplay:10.37,2013-09-17 09:17:00,
2013-09-17 05:22:00,45.3,42.8,30.29,NNE,22,0.0,0.0,91,0.00,CLR,,0.00,WeatherDisplay:10.37,2013-09-17 09:22:00,
2013-09-17 05:27:00,45.3,42.8,30.29,NNE,22,0.0,0.0,91,0.00,CLR,,0.00,WeatherDisplay:10.37,2013-09-17 09:27:00,
2013-09-17 05:32:00,45.1,42.7,30.29,NNE,22,0.0,0.0,91,0.00,CLR,,0.00,WeatherDisplay:10.37,2013-09-17 09:32:00,
2013-09-17 05:37:00,45.1,42.7,30.29,NNE,22,0.0,0.0,91,0.00,CLR,,0.00,WeatherDisplay:10.37,2013-09-17 09:37:00,
2013-09-17 05:42:00,45.1,42.7,30.29,NNE,22,0.0,0.0,91,0.00,CLR,,0.00,WeatherDisplay:10.37,2013-09-17 09:42:00,
2013-09-17 05:47:00,45.0,42.5,30.29,NNE,22,0.0,0.0,91,0.00,CLR,,0.00,WeatherDisplay:10.37,2013-09-17 09:47:00,
2013-09-17 05:52:00,45.0,42.5,30.29,NNE,22,0.0,0.0,91,0.00,CLR,,0.00,WeatherDisplay:10.37,2013-09-17 09:52:00,
2013-09-17 05:57:00,45.0,42.5,30.29,NNE,22,0.0,0.0,91,0.00,CLR,,0.00,WeatherDisplay:10.37,2013-09-17 09:57:00,
2013-09-17 06:02:00,44.8,42.3,30.29,NNE,22,0.0,0.0,91,0.00,CLR,,0.00,WeatherDisplay:10.37,2013-09-17 10:02:00,
2013-09-17 06:07:00,44.8,42.3,30.29,NNE,22,0.0,0.0,91,0.00,CLR,,0.00,WeatherDisplay:10.37,2013-09-17 10:07:00,
2013-09-17 06:12:00,44.8,42.3,30.29,NNE,22,0.0,0.0,91,0.00,CLR,,0.00,WeatherDisplay:10.37,2013-09-17 10:12:00,
2013-09-17 06:17:00,44.6,42.1,30.29,NNE,22,0.0,0.0,91,0.00,CLR,,0.00,WeatherDisplay:10.37,2013-09-17 10:17:00,
2013-09-17 06:22:00,44.6,42.1,30.29,NNE,22,0.0,0.0,91,0.00,CLR,,0.00,WeatherDisplay:10.37,2013-09-17 10:22:00,
2013-09-17 06:27:00,44.4,42.0,30.29,NNE,22,0.0,0.0,91,0.00,CLR,,0.00,WeatherDisplay:10.37,2013-09-17 10:27:00,
2013-09-17 06:32:00,44.4,42.0,30.30,NNE,22,0.0,0.0,91,0.00,CLR,,0.00,WeatherDisplay:10.37,2013-09-17 10:32:00,
2013-09-17 06:37:00,44.4,42.0,30.29,NNE,22,0.0,0.0,91,0.00,CLR,,0.00,WeatherDisplay:10.37,2013-09-17 10:37:00,
2013-09-17 06:42:00,44.2,41.8,30.30,NNE,22,0.0,0.0,91,0.00,CLR,,0.00,WeatherDisplay:10.37,2013-09-17 10:42:00,
2013-09-17 06:47:00,44.2,41.8,30.30,NNE,22,0.0,0.0,91,0.00,CLR,,0.00,WeatherDisplay:10.37,2013-09-17 10:47:00,
2013-09-17 06:52:00,44.2,41.8,30.30,NNE,22,0.0,0.0,91,0.00,CLR,,0.00,WeatherDisplay:10.37,2013-09-17 10:52:00,
2013-09-17 06:57:00,43.9,41.4,30.31,NNE,22,0.0,0.0,91,0.00,CLR,,0.00,WeatherDisplay:10.37,2013-09-17 10:57:00,
2013-09-17 07:02:00,43.9,41.4,30.31,NNE,22,0.0,0.0,91,0.00,CLR,,0.00,WeatherDisplay:10.37,2013-09-17 11:02:00,
2013-09-17 07:07:00,43.9,41.4,30.31,NNE,22,0.0,0.0,91,0.00,CLR,,0.00,WeatherDisplay:10.37,2013-09-17 11:07:00,
2013-09-17 07:12:00,43.7,41.2,30.31,NNE,22,0.0,0.0,91,0.00,CLR,,0.00,WeatherDisplay:10.37,2013-09-17 11:12:00,
2013-09-17 07:17:00,43.5,41.1,30.31,NNE,22,0.0,0.0,91,0.00,CLR,,0.00,WeatherDisplay:10.37,2013-09-17 11:17:00,
2013-09-17 07:22:00,43.5,41.1,30.31,NNE,22,0.0,0.0,91,0.00,CLR,,0.00,WeatherDisplay:10.37,2013-09-17 11:22:00,
2013-09-17 07:27:00,43.5,41.1,30.32,NNE,22,0.0,0.0,91,0.00,CLR,,0.00,WeatherDisplay:10.37,2013-09-17 11:27:00,
2013-09-17 07:32:00,43.5,41.1,30.32,NNE,22,0.0,0.0,91,0.00,CLR,,0.00,WeatherDisplay:10.37,2013-09-17 11:32:00,
2013-09-17 07:37:00,43.5,41.1,30.32,NNE,22,0.0,0.0,91,0.00,CLR,,0.00,WeatherDisplay:10.37,2013-09-17 11:37:00,
2013-09-17 07:42:00,43.5,41.1,30.32,NNE,22,0.0,0.0,91,0.00,CLR,,0.00,WeatherDisplay:10.37,2013-09-17 11:42:00,
2013-09-17 07:47:00,43.5,41.1,30.32,NNE,22,0.0,0.0,91,0.00,CLR,,0.00,WeatherDisplay:10.37,2013-09-17 11:47:00,
2013-09-17 07:52:00,43.7,41.2,30.32,NNE,22,0.0,0.0,91,0.00,CLR,,0.00,WeatherDisplay:10.37,2013-09-17 11:52:00,
2013-09-17 07:57:00,43.9,41.4,30.32,NNE,22,0.0,0.0,91,0.00,CLR,,0.00,WeatherDisplay:10.37,2013-09-17 11:57:00,
2013-09-17 08:02:00,44.1,41.6,30.32,NNE,22,0.0,0.0,91,0.00,CLR,,0.00,WeatherDisplay:10.37,2013-09-17 12:02:00,
2013-09-17 08:07:00,44.2,42.1,30.32,NNE,22,0.0,0.0,92,0.00,CLR,,0.00,WeatherDisplay:10.37,2013-09-17 12:07:00,
2013-09-17 08:12:00,44.4,42.2,30.32,NNE,22,0.0,0.0,92,0.00,CLR,,0.00,WeatherDisplay:10.37,2013-09-17 12:12:00,
2013-09-17 08:17:00,44.8,42.6,30.32,NNE,22,0.0,0.0,92,0.00,CLR,,0.00,WeatherDisplay:10.37,2013-09-17 12:17:00,
2013-09-17 08:22:00,45.0,42.8,30.32,NNE,22,0.0,0.0,92,0.00,CLR,,0.00,WeatherDisplay:10.37,2013-09-17 12:22:00,
2013-09-17 08:27:00,45.3,43.1,30.31,NNE,22,0.0,0.0,92,0.00,CLR,,0.00,WeatherDisplay:10.37,2013-09-17 12:27:00,
2013-09-17 08:32:00,45.7,43.5,30.31,NNE,22,0.0,0.0,92,0.00,CLR,,0.00,WeatherDisplay:10.37,2013-09-17 12:32:00,
2013-09-17 08:37:00,46.0,43.8,30.31,NNE,22,0.0,0.0,92,0.00,CLR,,0.00,WeatherDisplay:10.37,2013-09-17 12:37:00,
2013-09-17 08:42:00,46.2,44.0,30.32,NNE,22,0.0,0.0,92,0.00,CLR,,0.00,WeatherDisplay:10.37,2013-09-17 12:42:00,
2013-09-17 08:47:00,46.8,44.6,30.31,NNE,22,0.0,0.0,92,0.00,CLR,,0.00,WeatherDisplay:10.37,2013-09-17 12:47:00,
2013-09-17 08:52:00,47.1,44.9,30.32,NNE,22,0.0,0.0,92,0.00,CLR,,0.00,WeatherDisplay:10.37,2013-09-17 12:52:00,
2013-09-17 08:58:00,47.7,45.5,30.32,NNE,22,0.0,0.0,92,0.00,CLR,,0.00,WeatherDisplay:10.37,2013-09-17 12:58:00,
2013-09-17 09:03:00,48.0,45.8,30.32,NNE,22,0.0,0.0,92,0.00,CLR,,0.00,WeatherDisplay:10.37,2013-09-17 13:03:00,
2013-09-17 09:08:00,49.1,46.9,30.32,NNE,22,0.0,0.0,92,0.00,CLR,,0.00,WeatherDisplay:10.37,2013-09-17 13:08:00,
2013-09-17 09:13:00,49.8,47.6,30.32,NNE,22,0.0,0.0,92,0.00,CLR,,0.00,WeatherDisplay:10.37,2013-09-17 13:13:00,
2013-09-17 09:18:00,50.7,48.8,30.32,NNE,22,0.0,0.0,93,0.00,CLR,,0.00,WeatherDisplay:10.37,2013-09-17 13:18:00,
2013-09-17 09:23:00,52.0,49.7,30.32,NNE,22,0.0,0.0,92,0.00,CLR,,0.00,WeatherDisplay:10.37,2013-09-17 13:23:00,
2013-09-17 09:28:00,53.8,51.5,30.32,NNE,22,0.0,0.0,92,0.00,CLR,,0.00,WeatherDisplay:10.37,2013-09-17 13:28:00,
2013-09-17 09:33:00,54.7,52.1,30.32,NNE,22,0.0,0.0,91,0.00,CLR,,0.00,WeatherDisplay:10.37,2013-09-17 13:33:00,
2013-09-17 09:38:00,55.2,52.3,30.32,NNE,22,0.0,0.0,90,0.00,CLR,,0.00,WeatherDisplay:10.37,2013-09-17 13:38:00,
2013-09-17 09:43:00,55.9,53.4,30.32,NNE,22,0.0,0.0,91,0.00,CLR,,0.00,WeatherDisplay:10.37,2013-09-17 13:43:00,
2013-09-17 09:48:00,56.1,53.5,30.32,NNE,22,0.0,0.0,91,0.00,CLR,,0.00,WeatherDisplay:10.37,2013-09-17 13:48:00,
2013-09-17 09:53:00,56.3,53.7,30.33,NNE,22,0.0,0.0,91,0.00,CLR,,0.00,WeatherDisplay:10.37,2013-09-17 13:53:00,
2013-09-17 09:58:00,57.0,54.1,30.32,NNE,22,0.0,0.0,90,0.00,CLR,,0.00,WeatherDisplay:10.37,2013-09-17 13:58:00,
2013-09-17 10:03:00,57.7,54.8,30.32,NNE,22,0.0,0.0,90,0.00,CLR,,0.00,WeatherDisplay:10.37,2013-09-17 14:03:00,
2013-09-17 10:08:00,58.1,54.9,30.33,NNE,22,0.0,0.0,89,0.00,CLR,,0.00,WeatherDisplay:10.37,2013-09-17 14:08:00,
2013-09-17 10:13:00,58.8,55.0,30.32,NNE,22,0.0,0.0,87,0.00,CLR,,0.00,WeatherDisplay:10.37,2013-09-17 14:13:00,
2013-09-17 10:18:00,59.2,55.0,30.32,NNE,22,0.0,0.0,86,0.00,CLR,,0.00,WeatherDisplay:10.37,2013-09-17 14:18:00,
2013-09-17 10:23:00,59.5,55.0,30.32,NNE,22,0.0,0.0,85,0.00,CLR,,0.00,WeatherDisplay:10.37,2013-09-17 14:23:00,
2013-09-17 10:28:00,59.7,54.5,30.33,NNE,22,0.0,0.0,83,0.00,CLR,,0.00,WeatherDisplay:10.37,2013-09-17 14:28:00,
2013-09-17 10:33:00,59.9,54.7,30.33,NNE,22,0.0,0.0,83,0.00,CLR,,0.00,WeatherDisplay:10.37,2013-09-17 14:33:00,
2013-09-17 10:38:00,60.4,55.3,30.33,NNE,22,0.0,0.0,83,0.00,CLR,,0.00,WeatherDisplay:10.37,2013-09-17 14:38:00,
2013-09-17 10:43:00,61.5,56.0,30.33,NNE,22,0.0,0.0,82,0.00,CLR,,0.00,WeatherDisplay:10.37,2013-09-17 14:43:00,
2013-09-17 10:48:00,62.4,56.2,30.34,NNE,22,0.0,0.0,80,0.00,CLR,,0.00,WeatherDisplay:10.37,2013-09-17 14:48:00,
2013-09-17 10:53:00,63.0,56.0,30.34,NNE,22,0.0,0.0,78,0.00,CLR,,0.00,WeatherDisplay:10.37,2013-09-17 14:53:00,
2013-09-17 10:58:00,63.7,56.0,30.34,NNE,22,0.0,0.0,76,0.00,CLR,,0.00,WeatherDisplay:10.37,2013-09-17 14:58:00,
2013-09-17 11:03:00,64.2,55.4,30.34,NNE,22,0.0,0.0,73,0.00,CLR,,0.00,WeatherDisplay:10.37,2013-09-17 15:03:00,
2013-09-17 11:08:00,64.9,56.1,30.34,NNE,22,0.0,0.0,73,0.00,CLR,,0.00,WeatherDisplay:10.37,2013-09-17 15:08:00,
2013-09-17 11:13:00,64.9,56.1,30.34,NNE,22,0.0,0.0,73,0.00,CLR,,0.00,WeatherDisplay:10.37,2013-09-17 15:13:00,
2013-09-17 11:18:00,64.9,56.1,30.34,NNE,22,0.0,0.0,73,0.00,CLR,,0.00,WeatherDisplay:10.37,2013-09-17 15:18:00,
2013-09-17 11:23:00,65.5,56.2,30.33,NNE,22,0.0,0.0,72,0.00,CLR,,0.00,WeatherDisplay:10.37,2013-09-17 15:23:00,
2013-09-17 11:29:00,65.8,56.2,30.34,NNE,22,0.0,0.0,71,0.00,CLR,,0.00,WeatherDisplay:10.37,2013-09-17 15:29:00,
2013-09-17 11:34:00,66.7,56.6,30.33,NNE,22,0.0,0.0,70,0.00,CLR,,0.00,WeatherDisplay:10.37,2013-09-17 15:34:00,
2013-09-17 11:39:00,66.6,55.7,30.33,NNE,22,0.0,0.0,68,0.00,CLR,,0.00,WeatherDisplay:10.37,2013-09-17 15:39:00,
2013-09-17 11:44:00,66.2,55.3,30.33,NNE,22,0.0,0.0,68,0.00,CLR,,0.00,WeatherDisplay:10.37,2013-09-17 15:44:00,
2013-09-17 11:49:00,65.3,54.5,30.34,NNE,22,0.0,0.0,68,0.00,CLR,,0.00,WeatherDisplay:10.37,2013-09-17 15:49:00,
2013-09-17 11:54:00,65.5,54.6,30.33,NNE,22,0.0,0.0,68,0.00,CLR,,0.00,WeatherDisplay:10.37,2013-09-17 15:54:00,
2013-09-17 11:59:00,66.0,54.7,30.33,NNE,22,0.0,0.0,67,0.00,CLR,,0.00,WeatherDisplay:10.37,2013-09-17 15:59:00,
2013-09-17 12:04:00,65.3,54.5,30.33,NNE,22,0.0,0.0,68,0.00,CLR,,0.00,WeatherDisplay:10.37,2013-09-17 16:04:00,
2013-09-17 12:09:00,65.1,54.3,30.33,NNE,22,0.0,0.0,68,0.00,CLR,,0.00,WeatherDisplay:10.37,2013-09-17 16:09:00,
2013-09-17 12:14:00,65.1,54.3,30.33,NNE,22,0.0,0.0,68,0.00,CLR,,0.00,WeatherDisplay:10.37,2013-09-17 16:14:00,
2013-09-17 12:19:00,64.9,54.1,30.33,NNE,22,0.0,0.0,68,0.00,CLR,,0.00,WeatherDisplay:10.37,2013-09-17 16:19:00,
2013-09-17 12:24:00,64.6,53.8,30.33,NNE,22,0.0,0.0,68,0.00,CLR,,0.00,WeatherDisplay:10.37,2013-09-17 16:24:00,
2013-09-17 12:29:00,64.6,53.8,30.33,NNE,22,0.0,0.0,68,0.00,CLR,,0.00,WeatherDisplay:10.37,2013-09-17 16:29:00,
2013-09-17 12:34:00,64.2,53.0,30.33,NNE,22,0.0,0.0,67,0.00,CLR,,0.00,WeatherDisplay:10.37,2013-09-17 16:34:00,
2013-09-17 12:39:00,64.2,53.4,30.33,NNE,22,0.0,0.0,68,0.00,CLR,,0.00,WeatherDisplay:10.37,2013-09-17 16:39:00,
2013-09-17 12:44:00,64.6,53.8,30.33,NNE,22,0.0,0.0,68,0.00,CLR,,0.00,WeatherDisplay:10.37,2013-09-17 16:44:00,
2013-09-17 12:49:00,64.9,53.7,30.33,NNE,22,0.0,0.0,67,0.00,CLR,,0.00,WeatherDisplay:10.37,2013-09-17 16:49:00,
2013-09-17 12:54:00,64.9,53.7,30.33,NNE,22,0.0,0.0,67,0.00,CLR,,0.00,WeatherDisplay:10.37,2013-09-17 16:54:00,
2013-09-17 12:59:00,65.8,54.6,30.33,NNE,22,0.0,0.0,67,0.00,CLR,,0.00,WeatherDisplay:10.37,2013-09-17 16:59:00,
2013-09-17 13:04:00,67.3,55.5,30.33,NNE,22,0.0,0.0,66,0.00,CLR,,0.00,WeatherDisplay:10.37,2013-09-17 17:04:00,
2013-09-17 13:09:00,67.8,55.2,30.33,NNE,22,0.0,0.0,64,0.00,CLR,,0.00,WeatherDisplay:10.37,2013-09-17 17:09:00,
2013-09-17 13:14:00,67.8,55.2,30.32,NNE,22,0.0,0.0,64,0.00,CLR,,0.00,WeatherDisplay:10.37,2013-09-17 17:14:00,
2013-09-17 13:19:00,69.8,56.6,30.32,NNE,22,0.0,0.0,63,0.00,CLR,,0.00,WeatherDisplay:10.37,2013-09-17 17:19:00,
2013-09-17 13:24:00,71.6,57.4,30.32,NNE,22,0.0,0.0,61,0.00,CLR,,0.00,WeatherDisplay:10.37,2013-09-17 17:24:00,
2013-09-17 13:29:00,73.6,58.4,30.32,NNE,22,0.0,0.0,59,0.00,CLR,,0.00,WeatherDisplay:10.37,2013-09-17 17:29:00,
2013-09-17 13:34:00,74.5,57.8,30.32,NNE,22,0.0,0.0,56,0.00,CLR,,0.00,WeatherDisplay:10.37,2013-09-17 17:34:00,
2013-09-17 13:39:00,73.4,56.2,30.31,NNE,22,0.0,0.0,55,0.00,CLR,,0.00,WeatherDisplay:10.37,2013-09-17 17:39:00,
2013-09-17 13:44:00,72.7,56.1,30.31,NNE,22,0.0,0.0,56,0.00,CLR,,0.00,WeatherDisplay:10.37,2013-09-17 17:44:00,
2013-09-17 13:49:00,74.1,57.9,30.31,NNE,22,0.0,0.0,57,0.00,CLR,,0.00,WeatherDisplay:10.37,2013-09-17 17:49:00,
2013-09-17 13:54:00,76.1,57.7,30.31,NNE,22,0.0,0.0,53,0.00,CLR,,0.00,WeatherDisplay:10.37,2013-09-17 17:54:00,
2013-09-17 13:59:00,75.9,57.0,30.31,NNE,22,0.0,0.0,52,0.00,CLR,,0.00,WeatherDisplay:10.37,2013-09-17 17:59:00,
2013-09-17 14:04:00,74.8,56.0,30.30,NNE,22,0.0,0.0,52,0.00,CLR,,0.00,WeatherDisplay:10.37,2013-09-17 18:04:00,
2013-09-17 14:09:00,73.8,56.1,30.30,NNE,22,0.0,0.0,54,0.00,CLR,,0.00,WeatherDisplay:10.37,2013-09-17 18:09:00,
2013-09-17 14:14:00,73.4,55.2,30.30,NNE,22,0.0,0.0,53,0.00,CLR,,0.00,WeatherDisplay:10.37,2013-09-17 18:14:00,
2013-09-17 14:19:00,72.9,54.7,30.29,NNE,22,0.0,0.0,53,0.00,CLR,,0.00,WeatherDisplay:10.37,2013-09-17 18:19:00,
2013-09-17 14:24:00,72.9,55.2,30.29,NNE,22,0.0,0.0,54,0.00,CLR,,0.00,WeatherDisplay:10.37,2013-09-17 18:24:00,
2013-09-17 14:30:00,74.5,55.7,30.29,NNE,22,0.0,0.0,52,0.00,CLR,,0.00,WeatherDisplay:10.37,2013-09-17 18:30:00,
2013-09-17 14:35:00,74.8,56.6,30.29,NNE,22,0.0,0.0,53,0.00,CLR,,0.00,WeatherDisplay:10.37,2013-09-17 18:35:00,
2013-09-17 14:40:00,74.8,55.5,30.29,NNE,22,0.0,0.0,51,0.00,CLR,,0.00,WeatherDisplay:10.37,2013-09-17 18:40:00,
2013-09-17 14:45:00,73.9,55.2,30.29,NNE,22,0.0,0.0,52,0.00,CLR,,0.00,WeatherDisplay:10.37,2013-09-17 18:45:00,
2013-09-17 14:50:00,72.5,54.4,30.29,NNE,22,0.0,0.0,53,0.00,CLR,,0.00,WeatherDisplay:10.37,2013-09-17 18:50:00,
2013-09-17 14:55:00,71.8,53.7,30.29,NNE,22,0.0,0.0,53,0.00,CLR,,0.00,WeatherDisplay:10.37,2013-09-17 18:55:00,
2013-09-17 15:00:00,71.4,53.9,30.29,NNE,22,0.0,0.0,54,0.00,CLR,,0.00,WeatherDisplay:10.37,2013-09-17 19:00:00,
2013-09-17 15:05:00,71.4,54.4,30.29,NNE,22,0.0,0.0,55,0.00,CLR,,0.00,WeatherDisplay:10.37,2013-09-17 19:05:00,
2013-09-17 15:10:00,71.8,54.7,30.29,NNE,22,0.0,0.0,55,0.00,CLR,,0.00,WeatherDisplay:10.37,2013-09-17 19:10:00,
2013-09-17 15:15:00,71.7,54.2,30.29,NNE,22,0.0,0.0,54,0.00,CLR,,0.00,WeatherDisplay:10.37,2013-09-17 19:15:00,
2013-09-17 15:20:00,71.2,54.2,30.29,NNE,22,0.0,0.0,55,0.00,CLR,,0.00,WeatherDisplay:10.37,2013-09-17 19:20:00,
2013-09-17 15:25:00,71.2,54.2,30.28,NNE,22,0.0,0.0,55,0.00,CLR,,0.00,WeatherDisplay:10.37,2013-09-17 19:25:00,
2013-09-17 15:30:00,71.8,55.2,30.28,NNE,22,0.0,0.0,56,0.00,CLR,,0.00,WeatherDisplay:10.37,2013-09-17 19:30:00,
2013-09-17 15:35:00,72.3,55.2,30.28,NNE,22,0.0,0.0,55,0.00,CLR,,0.00,WeatherDisplay:10.37,2013-09-17 19:35:00,
2013-09-17 15:40:00,72.7,54.6,30.28,NNE,22,0.0,0.0,53,0.00,CLR,,0.00,WeatherDisplay:10.37,2013-09-17 19:40:00,
2013-09-17 15:45:00,72.4,54.9,30.28,NNE,22,0.0,0.0,54,0.00,CLR,,0.00,WeatherDisplay:10.37,2013-09-17 19:45:00,
2013-09-17 15:50:00,73.9,56.2,30.28,NNE,22,0.0,0.0,54,0.00,CLR,,0.00,WeatherDisplay:10.37,2013-09-17 19:50:00,
2013-09-17 15:55:00,75.9,56.5,30.28,NNE,22,0.0,0.0,51,0.00,CLR,,0.00,WeatherDisplay:10.37,2013-09-17 19:55:00,
2013-09-17 16:00:00,77.7,57.6,30.27,NNE,22,0.0,0.0,50,0.00,CLR,,0.00,WeatherDisplay:10.37,2013-09-17 20:00:00,
2013-09-17 16:05:00,79.8,57.8,30.27,NNE,22,0.0,0.0,47,0.00,CLR,,0.00,WeatherDisplay:10.37,2013-09-17 20:05:00,
2013-09-17 16:10:00,80.2,57.0,30.27,NNE,22,0.0,0.0,45,0.00,CLR,,0.00,WeatherDisplay:10.37,2013-09-17 20:10:00,
2013-09-17 16:15:00,78.1,56.2,30.27,NNE,22,0.0,0.0,47,0.00,CLR,,0.00,WeatherDisplay:10.37,2013-09-17 20:15:00,
2013-09-17 16:20:00,77.7,55.9,30.26,NNE,22,0.0,0.0,47,0.00,CLR,,0.00,WeatherDisplay:10.37,2013-09-17 20:20:00,
2013-09-17 16:25:00,78.1,55.6,30.26,NNE,22,0.0,0.0,46,0.00,CLR,,0.00,WeatherDisplay:10.37,2013-09-17 20:25:00,
2013-09-17 16:30:00,78.6,56.7,30.26,NNE,22,0.0,0.0,47,0.00,CLR,,0.00,WeatherDisplay:10.37,2013-09-17 20:30:00,
2013-09-17 16:35:00,78.5,56.0,30.26,NNE,22,0.0,0.0,46,0.00,CLR,,0.00,WeatherDisplay:10.37,2013-09-17 20:35:00,
2013-09-17 16:40:00,77.9,55.5,30.26,NNE,22,0.0,0.0,46,0.00,CLR,,0.00,WeatherDisplay:10.37,2013-09-17 20:40:00,
2013-09-17 16:45:00,78.6,57.3,30.26,NNE,22,0.0,0.0,48,0.00,CLR,,0.00,WeatherDisplay:10.37,2013-09-17 20:45:00,
2013-09-17 16:50:00,81.1,58.4,30.26,NNE,22,0.0,0.0,46,0.00,CLR,,0.00,WeatherDisplay:10.37,2013-09-17 20:50:00,
2013-09-17 16:55:00,82.0,56.7,30.26,NNE,22,0.0,0.0,42,0.00,CLR,,0.00,WeatherDisplay:10.37,2013-09-17 20:55:00,
2013-09-17 17:00:00,82.2,56.8,30.26,NNE,22,0.0,0.0,42,0.00,CLR,,0.00,WeatherDisplay:10.37,2013-09-17 21:00:00,
2013-09-17 17:05:00,81.7,56.4,30.26,NNE,22,0.0,0.0,42,0.00,CLR,,0.00,WeatherDisplay:10.37,2013-09-17 21:05:00,
2013-09-17 17:10:00,80.2,55.7,30.26,NNE,22,0.0,0.0,43,0.00,CLR,,0.00,WeatherDisplay:10.37,2013-09-17 21:10:00,
2013-09-17 17:15:00,76.8,53.9,30.26,NNE,22,0.0,0.0,45,0.00,CLR,,0.00,WeatherDisplay:10.37,2013-09-17 21:15:00,
2013-09-17 17:20:00,75.2,53.0,30.26,NNE,22,0.0,0.0,46,0.00,CLR,,0.00,WeatherDisplay:10.37,2013-09-17 21:20:00,
2013-09-17 17:25:00,73.9,53.0,30.26,NNE,22,0.0,0.0,48,0.00,CLR,,0.00,WeatherDisplay:10.37,2013-09-17 21:25:00,
2013-09-17 17:30:00,73.6,53.8,30.26,NNE,22,0.0,0.0,50,0.00,CLR,,0.00,WeatherDisplay:10.37,2013-09-17 21:30:00,
2013-09-17 17:35:00,74.1,53.7,30.26,NNE,22,0.0,0.0,49,0.00,CLR,,0.00,WeatherDisplay:10.37,2013-09-17 21:35:00,
2013-09-17 17:40:00,73.9,53.6,30.26,NNE,22,0.0,0.0,49,0.00,CLR,,0.00,WeatherDisplay:10.37,2013-09-17 21:40:00,
2013-09-17 17:45:00,73.0,53.2,30.26,NNE,22,0.0,0.0,50,0.00,CLR,,0.00,WeatherDisplay:10.37,2013-09-17 21:45:00,
2013-09-17 17:50:00,71.8,52.1,30.26,NNE,22,0.0,0.0,50,0.00,CLR,,0.00,WeatherDisplay:10.37,2013-09-17 21:50:00,
2013-09-17 17:55:00,70.9,52.4,30.26,NNE,22,0.0,0.0,52,0.00,CLR,,0.00,WeatherDisplay:10.37,2013-09-17 21:55:00,
2013-09-17 18:00:00,70.0,52.1,30.26,NNE,22,0.0,0.0,53,0.00,CLR,,0.00,WeatherDisplay:10.37,2013-09-17 22:00:00,
2013-09-17 18:05:00,69.1,51.7,30.26,NNE,22,0.0,0.0,54,0.00,CLR,,0.00,WeatherDisplay:10.37,2013-09-17 22:05:00,
2013-09-17 18:10:00,68.7,51.9,30.26,NNE,22,0.0,0.0,55,0.00,CLR,,0.00,WeatherDisplay:10.37,2013-09-17 22:10:00,
2013-09-17 18:15:00,68.4,51.1,30.26,NNE,22,0.0,0.0,54,0.00,CLR,,0.00,WeatherDisplay:10.37,2013-09-17 22:15:00,
2013-09-17 18:20:00,68.2,51.4,30.26,NNE,22,0.0,0.0,55,0.00,CLR,,0.00,WeatherDisplay:10.37,2013-09-17 22:20:00,
2013-09-17 18:25:00,68.2,51.4,30.26,NNE,22,0.0,0.0,55,0.00,CLR,,0.00,WeatherDisplay:10.37,2013-09-17 22:25:00,
2013-09-17 18:30:00,67.8,51.1,30.26,NNE,22,0.0,0.0,55,0.00,CLR,,0.00,WeatherDisplay:10.37,2013-09-17 22:30:00,
2013-09-17 18:35:00,67.3,51.0,30.26,NNE,22,0.0,0.0,56,0.00,CLR,,0.00,WeatherDisplay:10.37,2013-09-17 22:35:00,
2013-09-17 18:40:00,67.3,51.5,30.25,NNE,22,0.0,0.0,57,0.00,CLR,,0.00,WeatherDisplay:10.37,2013-09-17 22:40:00,
2013-09-17 18:45:00,67.2,51.5,30.25,NNE,22,0.0,0.0,57,0.00,CLR,,0.00,WeatherDisplay:10.37,2013-09-17 22:45:00,
2013-09-17 18:50:00,66.9,51.2,30.26,NNE,22,0.0,0.0,57,0.00,CLR,,0.00,WeatherDisplay:10.37,2013-09-17 22:50:00,
2013-09-17 18:55:00,66.0,50.8,30.26,NNE,22,0.0,0.0,58,0.00,CLR,,0.00,WeatherDisplay:10.37,2013-09-17 22:55:00,
2013-09-17 19:00:00,65.0,50.4,30.25,NNE,22,0.0,0.0,59,0.00,CLR,,0.00,WeatherDisplay:10.37,2013-09-17 23:00:00,
2013-09-17 19:05:00,64.2,50.0,30.25,NNE,22,0.0,0.0,60,0.00,CLR,,0.00,WeatherDisplay:10.37,2013-09-17 23:05:00,
2013-09-17 19:10:00,63.7,49.5,30.25,NNE,22,0.0,0.0,60,0.00,CLR,,0.00,WeatherDisplay:10.37,2013-09-17 23:10:00,
2013-09-17 19:15:00,63.0,49.3,30.25,NNE,22,0.0,0.0,61,0.00,CLR,,0.00,WeatherDisplay:10.37,2013-09-17 23:15:00,
2013-09-17 19:20:00,62.4,49.7,30.25,NNE,22,0.0,0.0,63,0.00,CLR,,0.00,WeatherDisplay:10.37,2013-09-17 23:20:00,
2013-09-17 19:25:00,61.9,49.1,30.25,NNE,22,0.0,0.0,63,0.00,CLR,,0.00,WeatherDisplay:10.37,2013-09-17 23:25:00,
2013-09-17 19:30:00,61.4,49.1,30.25,NNE,22,0.0,0.0,64,0.00,CLR,,0.00,WeatherDisplay:10.37,2013-09-17 23:30:00,
2013-09-17 19:35:00,61.0,49.2,30.26,NNE,22,0.0,0.0,65,0.00,CLR,,0.00,WeatherDisplay:10.37,2013-09-17 23:35:00,
2013-09-17 19:40:00,60.7,49.3,30.26,NNE,22,0.0,0.0,66,0.00,CLR,,0.00,WeatherDisplay:10.37,2013-09-17 23:40:00,
2013-09-17 19:45:00,60.4,49.0,30.26,NNE,22,0.0,0.0,66,0.00,CLR,,0.00,WeatherDisplay:10.37,2013-09-17 23:45:00,
2013-09-17 19:50:00,60.1,48.7,30.26,NNE,22,0.0,0.0,66,0.00,CLR,,0.00,WeatherDisplay:10.37,2013-09-17 23:50:00,
2013-09-17 19:55:00,59.5,48.6,30.26,NNE,22,0.0,0.0,67,0.00,CLR,,0.00,WeatherDisplay:10.37,2013-09-17 23:55:00,
2013-09-17 20:00:00,59.4,48.4,30.26,NNE,22,0.0,0.0,67,0.00,CLR,,0.00,WeatherDisplay:10.37,2013-09-18 00:00:00,
2013-09-17 20:05:00,58.8,48.3,30.26,NNE,22,0.0,0.0,68,0.00,CLR,,0.00,WeatherDisplay:10.37,2013-09-18 00:05:00,
2013-09-17 20:10:00,58.8,48.7,30.26,NNE,22,0.0,0.0,69,0.00,CLR,,0.00,WeatherDisplay:10.37,2013-09-18 00:10:00,
2013-09-17 20:15:00,58.6,48.5,30.26,NNE,22,0.0,0.0,69,0.00,CLR,,0.00,WeatherDisplay:10.37,2013-09-18 00:15:00,
2013-09-17 20:20:00,58.6,48.9,30.26,NNE,22,0.0,0.0,70,0.00,CLR,,0.00,WeatherDisplay:10.37,2013-09-18 00:20:00,
2013-09-17 20:25:00,58.1,48.4,30.26,NNE,22,0.0,0.0,70,0.00,CLR,,0.00,WeatherDisplay:10.37,2013-09-18 00:25:00,
2013-09-17 20:30:00,57.9,48.6,30.26,NNE,22,0.0,0.0,71,0.00,CLR,,0.00,WeatherDisplay:10.37,2013-09-18 00:30:00,
2013-09-17 20:35:00,57.7,48.4,30.26,NNE,22,0.0,0.0,71,0.00,CLR,,0.00,WeatherDisplay:10.37,2013-09-18 00:35:00,
2013-09-17 20:40:00,57.4,48.4,30.26,NNE,22,0.0,0.0,72,0.00,CLR,,0.00,WeatherDisplay:10.37,2013-09-18 00:40:00,
2013-09-17 20:45:00,57.0,48.4,30.26,NNE,22,0.0,0.0,73,0.00,CLR,,0.00,WeatherDisplay:10.37,2013-09-18 00:45:00,
2013-09-17 20:50:00,56.8,48.6,30.26,NNE,22,0.0,0.0,74,0.00,CLR,,0.00,WeatherDisplay:10.37,2013-09-18 00:50:00,
2013-09-17 20:55:00,56.1,48.3,30.26,NNE,22,0.0,0.0,75,0.00,CLR,,0.00,WeatherDisplay:10.37,2013-09-18 00:55:00,
2013-09-17 21:00:00,55.8,48.0,30.26,NNE,22,0.0,0.0,75,0.00,CLR,,0.00,WeatherDisplay:10.37,2013-09-18 01:00:00,
2013-09-17 21:05:00,55.6,47.8,30.26,NNE,22,0.0,0.0,75,0.00,CLR,,0.00,WeatherDisplay:10.37,2013-09-18 01:05:00,
2013-09-17 21:10:00,55.2,47.8,30.26,NNE,22,0.0,0.0,76,0.00,CLR,,0.00,WeatherDisplay:10.37,2013-09-18 01:10:00,
2013-09-17 21:15:00,55.2,48.1,30.26,NNE,22,0.0,0.0,77,0.00,CLR,,0.00,WeatherDisplay:10.37,2013-09-18 01:15:00,
2013-09-17 21:20:00,55.2,48.1,30.26,NNE,22,0.0,0.0,77,0.00,CLR,,0.00,WeatherDisplay:10.37,2013-09-18 01:20:00,
2013-09-17 21:25:00,55.0,48.0,30.26,NNE,22,0.0,0.0,77,0.00,CLR,,0.00,WeatherDisplay:10.37,2013-09-18 01:25:00,
2013-09-17 21:30:00,55.0,48.0,30.26,NNE,22,0.0,0.0,77,0.00,CLR,,0.00,WeatherDisplay:10.37,2013-09-18 01:30:00,
2013-09-17 21:35:00,55.2,48.1,30.26,NNE,22,0.0,0.0,77,0.00,CLR,,0.00,WeatherDisplay:10.37,2013-09-18 01:35:00,
2013-09-17 21:40:00,55.2,48.1,30.26,NNE,22,0.0,0.0,77,0.00,CLR,,0.00,WeatherDisplay:10.37,2013-09-18 01:40:00,
2013-09-17 21:45:00,55.2,48.1,30.26,NNE,22,0.0,0.0,77,0.00,CLR,,0.00,WeatherDisplay:10.37,2013-09-18 01:45:00,
2013-09-17 21:50:00,55.2,48.1,30.26,NNE,22,0.0,0.0,77,0.00,CLR,,0.00,WeatherDisplay:10.37,2013-09-18 01:50:00,
2013-09-17 21:55:00,55.2,48.1,30.26,NNE,22,0.0,0.0,77,0.00,CLR,,0.00,WeatherDisplay:10.37,2013-09-18 01:55:00,
2013-09-17 22:00:00,55.0,48.0,30.26,NNE,22,0.0,0.0,77,0.00,CLR,,0.00,WeatherDisplay:10.37,2013-09-18 02:00:00,
2013-09-17 22:05:00,55.0,48.0,30.26,NNE,22,0.0,0.0,77,0.00,CLR,,0.00,WeatherDisplay:10.37,2013-09-18 02:05:00,
2013-09-17 22:10:00,55.0,48.0,30.26,NNE,22,0.0,0.0,77,0.00,CLR,,0.00,WeatherDisplay:10.37,2013-09-18 02:10:00,
2013-09-17 22:15:00,55.0,48.0,30.26,NNE,22,0.0,0.0,77,0.00,CLR,,0.00,WeatherDisplay:10.37,2013-09-18 02:15:00,
2013-09-17 22:20:00,55.2,48.1,30.26,NNE,22,0.0,0.0,77,0.00,CLR,,0.00,WeatherDisplay:10.37,2013-09-18 02:20:00,
2013-09-17 22:25:00,55.2,48.1,30.26,NNE,22,0.0,0.0,77,0.00,CLR,,0.00,WeatherDisplay:10.37,2013-09-18 02:25:00,
2013-09-17 22:30:00,55.0,48.3,30.26,NNE,22,0.0,0.0,78,0.00,CLR,,0.00,WeatherDisplay:10.37,2013-09-18 02:30:00,
2013-09-17 22:35:00,55.0,48.3,30.26,NNE,22,0.0,0.0,78,0.00,CLR,,0.00,WeatherDisplay:10.37,2013-09-18 02:35:00,
2013-09-17 22:40:00,55.0,48.3,30.26,NNE,22,0.0,0.0,78,0.00,CLR,,0.00,WeatherDisplay:10.37,2013-09-18 02:40:00,
2013-09-17 22:45:00,55.0,48.3,30.26,NNE,22,0.0,0.0,78,0.00,CLR,,0.00,WeatherDisplay:10.37,2013-09-18 02:45:00,
2013-09-17 22:50:00,55.0,48.3,30.26,NNE,22,0.0,0.0,78,0.00,CLR,,0.00,WeatherDisplay:10.37,2013-09-18 02:50:00,
2013-09-17 22:55:00,55.0,48.3,30.26,NNE,22,0.0,0.0,78,0.00,CLR,,0.00,WeatherDisplay:10.37,2013-09-18 02:55:00,
2013-09-17 23:00:00,55.0,48.3,30.26,NNE,22,0.0,0.0,78,0.00,CLR,,0.00,WeatherDisplay:10.37,2013-09-18 03:00:00,
2013-09-17 23:06:00,55.0,48.3,30.26,NNE,22,0.0,0.0,78,0.00,CLR,,0.00,WeatherDisplay:10.37,2013-09-18 03:06:00,
2013-09-17 23:11:00,55.0,48.3,30.26,NNE,22,0.0,0.0,78,0.00,CLR,,0.00,WeatherDisplay:10.37,2013-09-18 03:11:00,
2013-09-17 23:16:00,55.2,48.5,30.26,NNE,22,0.0,0.0,78,0.00,CLR,,0.00,WeatherDisplay:10.37,2013-09-18 03:16:00,
2013-09-17 23:21:00,55.2,48.5,30.26,NNE,22,0.0,0.0,78,0.00,CLR,,0.00,WeatherDisplay:10.37,2013-09-18 03:21:00,
2013-09-17 23:26:00,55.2,48.5,30.26,NNE,22,0.0,0.0,78,0.00,CLR,,0.00,WeatherDisplay:10.37,2013-09-18 03:26:00,
2013-09-17 23:31:00,55.2,48.1,30.26,NNE,22,0.0,0.0,77,0.00,CLR,,0.00,WeatherDisplay:10.37,2013-09-18 03:31:00,
2013-09-17 23:36:00,55.2,48.1,30.26,NNE,22,0.0,0.0,77,0.00,CLR,,0.00,WeatherDisplay:10.37,2013-09-18 03:36:00,
2013-09-17 23:41:00,55.2,48.1,30.26,NNE,22,0.0,0.0,77,0.00,CLR,,0.00,WeatherDisplay:10.37,2013-09-18 03:41:00,
2013-09-17 23:46:00,55.2,48.1,30.26,NNE,22,0.0,0.0,77,0.00,CLR,,0.00,WeatherDisplay:10.37,2013-09-18 03:46:00,
2013-09-17 23:51:00,55.2,48.1,30.26,NNE,22,0.0,0.0,77,0.00,CLR,,0.00,WeatherDisplay:10.37,2013-09-18 03:51:00,
2013-09-17 23:56:00,55.2,48.1,30.26,NNE,22,0.0,0.0,77,0.00,CLR,,0.00,WeatherDisplay:10.37,2013-09-18 03:56:00,